| time (UTC) | temp F | wind direction | speed MPH | gust MPH | rain 1hr in | rain 24hr in | rain mn in | humidity % | barometer mb |
| 20260902095411 | 69 | 126 | 3.0 | 7.0 | 0.00 | 0.00 | 0.00 | 96 | 1014.5 |
| 20260902094937 | 69 | 113 | 2.0 | 5.0 | 0.00 | 0.00 | 0.00 | 96 | 1014.7 |
| 20260902094417 | 68 | 134 | 0.0 | 0.0 | 0.00 | 0.00 | 0.00 | 95 | 1014.9 |
| 20260902093910 | 68 | 123 | 0.0 | 0.0 | 0.00 | 0.00 | 0.00 | 95 | 1015.0 |
| 20260902093416 | 68 | 123 | 0.0 | 0.0 | 0.00 | 0.00 | 0.00 | 95 | 1015.0 |
| 20260902092907 | 68 | 123 | 0.0 | 0.0 | 0.00 | 0.00 | 0.00 | 95 | 1014.9 |
| 20260902092411 | 68 | 123 | 0.0 | 0.0 | 0.00 | 0.00 | 0.00 | 95 | 1014.8 |
| 20260902091931 | 68 | 125 | 0.0 | 0.0 | 0.00 | 0.00 | 0.00 | 95 | 1014.7 |
| 20260902091500 | 68 | 125 | 0.0 | 0.0 | 0.00 | 0.00 | 0.00 | 95 | 1014.8 |
| 20260902090928 | 68 | 125 | 0.0 | 0.0 | 0.00 | 0.00 | 0.00 | 95 | 1014.9 |
| 20260902090418 | 68 | 125 | 0.0 | 0.0 | 0.00 | 0.00 | 0.00 | 95 | 1014.9 |
| 20260902085936 | 68 | 125 | 0.0 | 0.0 | 0.00 | 0.01 | 0.00 | 95 | 1014.9 |
| 20260902085418 | 68 | 125 | 0.0 | 0.0 | 0.00 | 0.01 | 0.00 | 95 | 1014.8 |
| 20260902084925 | 68 | 125 | 0.0 | 0.0 | 0.00 | 0.01 | 0.00 | 95 | 1014.9 |
| 20260902084430 | 68 | 125 | 0.0 | 0.0 | 0.00 | 0.01 | 0.00 | 95 | 1014.9 |
| 20260902083924 | 68 | 125 | 0.0 | 0.0 | 0.00 | 0.01 | 0.00 | 94 | 1015.0 |
| 20260902083500 | 68 | 125 | 0.0 | 0.0 | 0.00 | 0.01 | 0.00 | 94 | 1015.2 |
| 20260902082923 | 68 | 125 | 0.0 | 0.0 | 0.00 | 0.01 | 0.00 | 94 | 1015.3 |
| 20260902082408 | 68 | 125 | 0.0 | 0.0 | 0.00 | 0.01 | 0.00 | 94 | 1015.3 |
| 20260902081909 | 68 | 125 | 0.0 | 0.0 | 0.00 | 0.01 | 0.00 | 94 | 1015.4 |
| 20260902081412 | 68 | 125 | 0.0 | 0.0 | 0.00 | 0.01 | 0.00 | 95 | 1015.3 |
| 20260902080922 | 68 | 125 | 0.0 | 0.0 | 0.00 | 0.01 | 0.00 | 94 | 1015.3 |
| 20260902080432 | 68 | 125 | 0.0 | 0.0 | 0.00 | 0.01 | 0.00 | 95 | 1015.4 |
| 20260902075925 | 68 | 125 | 0.0 | 0.0 | 0.00 | 0.01 | 0.00 | 94 | 1015.3 |
| 20260902075405 | 68 | 125 | 0.0 | 0.0 | 0.00 | 0.01 | 0.00 | 94 | 1015.4 |
| 20260902074943 | 69 | 125 | 0.0 | 0.0 | 0.00 | 0.01 | 0.00 | 94 | 1015.3 |
| 20260902074430 | 69 | 125 | 0.0 | 0.0 | 0.00 | 0.01 | 0.00 | 94 | 1015.4 |
| 20260902073928 | 69 | 125 | 0.0 | 0.0 | 0.00 | 0.01 | 0.00 | 94 | 1015.4 |
| 20260902073438 | 69 | 125 | 0.0 | 0.0 | 0.00 | 0.01 | 0.00 | 94 | 1015.4 |
| 20260902072913 | 69 | 125 | 0.0 | 0.0 | 0.00 | 0.01 | 0.00 | 94 | 1015.4 |
| 20260902072444 | 69 | 125 | 0.0 | 0.0 | 0.00 | 0.01 | 0.00 | 94 | 1015.3 |
| 20260902071923 | 69 | 125 | 0.0 | 0.0 | 0.00 | 0.01 | 0.00 | 94 | 1015.4 |
| 20260902071442 | 69 | 125 | 0.0 | 0.0 | 0.00 | 0.01 | 0.00 | 94 | 1015.5 |
| 20260902070915 | 69 | 125 | 0.0 | 0.0 | 0.00 | 0.01 | 0.00 | 94 | 1015.5 |
| 20260902070442 | 69 | 125 | 0.0 | 0.0 | 0.00 | 0.01 | 0.00 | 94 | 1015.4 |
| 20260902065912 | 69 | 125 | 0.0 | 0.0 | 0.00 | 0.01 | 0.00 | 94 | 1015.3 |
| 20260902065436 | 69 | 125 | 0.0 | 1.0 | 0.00 | 0.01 | 0.00 | 94 | 1015.1 |
| 20260902064931 | 69 | 125 | 0.0 | 1.0 | 0.00 | 0.01 | 0.00 | 94 | 1015.0 |
| 20260902064426 | 69 | 125 | 0.0 | 0.0 | 0.00 | 0.01 | 0.00 | 94 | 1015.2 |
| 20260902063933 | 69 | 125 | 0.0 | 0.0 | 0.00 | 0.01 | 0.00 | 94 | 1015.3 |
| 20260902063425 | 69 | 125 | 0.0 | 0.0 | 0.00 | 0.01 | 0.00 | 94 | 1015.4 |
| 20260902062939 | 70 | 125 | 0.0 | 0.0 | 0.00 | 0.01 | 0.00 | 94 | 1015.4 |
| 20260902062416 | 70 | 125 | 0.0 | 0.0 | 0.00 | 0.01 | 0.00 | 94 | 1015.5 |
| 20260902061937 | 70 | 125 | 0.0 | 0.0 | 0.00 | 0.01 | 0.00 | 94 | 1015.6 |
| 20260902061430 | 70 | 125 | 0.0 | 0.0 | 0.00 | 0.01 | 0.00 | 94 | 1015.6 |
| 20260902060914 | 70 | 125 | 0.0 | 0.0 | 0.00 | 0.01 | 0.00 | 94 | 1015.6 |
| 20260902060414 | 70 | 125 | 0.0 | 0.0 | 0.00 | 0.01 | 0.00 | 94 | 1015.6 |
| 20260902055947 | 70 | 125 | 0.0 | 0.0 | 0.00 | 0.06 | 0.00 | 94 | 1015.7 |
| 20260902055438 | 70 | 125 | 0.0 | 0.0 | 0.00 | 0.06 | 0.00 | 94 | 1015.7 |
| 20260902054916 | 70 | 125 | 0.0 | 0.0 | 0.00 | 0.06 | 0.00 | 94 | 1015.6 |
| 20260902054417 | 70 | 125 | 0.0 | 4.0 | 0.00 | 0.06 | 0.00 | 94 | 1015.8 |
| 20260902053922 | 70 | 125 | 1.0 | 4.0 | 0.00 | 0.06 | 0.00 | 94 | 1015.7 |
| 20260902053414 | 70 | 122 | 2.0 | 4.0 | 0.00 | 0.06 | 0.00 | 94 | 1015.7 |
| 20260902052920 | 70 | 118 | 0.0 | 3.0 | 0.00 | 0.06 | 0.00 | 94 | 1015.8 |
| 20260902052445 | 70 | 115 | 0.0 | 2.0 | 0.00 | 0.06 | 0.00 | 94 | 1015.7 |
| 20260902051915 | 70 | 115 | 0.0 | 2.0 | 0.00 | 0.06 | 0.00 | 94 | 1015.8 |
| 20260902051436 | 70 | 88 | 0.0 | 0.0 | 0.00 | 0.06 | 0.00 | 94 | 1015.7 |
| 20260902050916 | 70 | 75 | 0.0 | 0.0 | 0.00 | 0.06 | 0.00 | 94 | 1015.8 |
| 20260902050408 | 70 | 75 | 0.0 | 0.0 | 0.00 | 0.06 | 0.00 | 93 | 1015.7 |
| 20260902045914 | 71 | 77 | 0.0 | 0.0 | 0.00 | 0.06 | 0.00 | 93 | 1015.6 |
| 20260902045409 | 71 | 77 | 0.0 | 0.0 | 0.00 | 0.06 | 0.00 | 93 | 1015.6 |
| 20260902044917 | 71 | 77 | 0.0 | 0.0 | 0.00 | 0.06 | 0.00 | 93 | 1015.7 |
| 20260902044433 | 71 | 77 | 0.0 | 0.0 | 0.00 | 0.06 | 0.00 | 93 | 1015.7 |
| 20260902043916 | 71 | 77 | 0.0 | 0.0 | 0.00 | 0.06 | 0.00 | 93 | 1015.6 |
| 20260902043446 | 71 | 76 | 0.0 | 0.0 | 0.00 | 0.06 | 0.00 | 93 | 1015.8 |
| 20260902042927 | 71 | 76 | 0.0 | 0.0 | 0.00 | 0.06 | 0.00 | 93 | 1015.7 |
| 20260902042420 | 71 | 77 | 0.0 | 0.0 | 0.00 | 0.06 | 0.00 | 93 | 1015.6 |
| 20260902041926 | 71 | 77 | 0.0 | 0.0 | 0.00 | 0.06 | 0.00 | 93 | 1015.6 |
| 20260902041414 | 71 | 76 | 0.0 | 0.0 | 0.00 | 0.06 | 0.00 | 93 | 1015.6 |
| 20260902040923 | 71 | 76 | 0.0 | 0.0 | 0.00 | 0.06 | 0.00 | 93 | 1015.6 |
| 20260902040424 | 72 | 76 | 0.0 | 0.0 | 0.00 | 0.06 | 0.00 | 93 | 1015.5 |
| 20260902035938 | 72 | 77 | 0.0 | 0.0 | 0.00 | 0.06 | 0.06 | 93 | 1015.6 |
| 20260902035438 | 72 | 77 | 0.0 | 0.0 | 0.00 | 0.06 | 0.06 | 93 | 1015.5 |
| 20260902034919 | 72 | 77 | 0.0 | 0.0 | 0.00 | 0.06 | 0.06 | 93 | 1015.5 |
| 20260902034433 | 72 | 77 | 0.0 | 0.0 | 0.00 | 0.06 | 0.06 | 93 | 1015.6 |
| 20260902033943 | 72 | 77 | 0.0 | 0.0 | 0.00 | 0.06 | 0.06 | 93 | 1015.5 |
| 20260902033415 | 72 | 77 | 0.0 | 0.0 | 0.00 | 0.06 | 0.06 | 93 | 1015.5 |
| 20260902032942 | 72 | 77 | 0.0 | 0.0 | 0.00 | 0.06 | 0.06 | 93 | 1015.5 |
| 20260902032417 | 72 | 77 | 0.0 | 0.0 | 0.00 | 0.06 | 0.06 | 93 | 1015.6 |
| 20260902031936 | 72 | 77 | 0.0 | 0.0 | 0.00 | 0.06 | 0.06 | 93 | 1015.6 |
| 20260902031418 | 72 | 77 | 0.0 | 0.0 | 0.00 | 0.06 | 0.06 | 93 | 1015.6 |
| 20260902030911 | 73 | 77 | 0.0 | 0.0 | 0.00 | 0.06 | 0.06 | 93 | 1015.6 |
| 20260902030415 | 73 | 77 | 0.0 | 0.0 | 0.00 | 0.06 | 0.06 | 93 | 1015.6 |
| 20260902025941 | 73 | 77 | 0.0 | 0.0 | 0.00 | 0.06 | 0.06 | 93 | 1015.6 |
| 20260902025429 | 73 | 73 | 0.0 | 0.0 | 0.00 | 0.06 | 0.06 | 92 | 1015.6 |
| 20260902024923 | 73 | 73 | 0.0 | 0.0 | 0.00 | 0.06 | 0.06 | 92 | 1015.6 |
| 20260902024424 | 73 | 73 | 0.0 | 0.0 | 0.00 | 0.06 | 0.06 | 92 | 1015.6 |
| 20260902023919 | 73 | 73 | 0.0 | 0.0 | 0.00 | 0.06 | 0.06 | 92 | 1015.7 |
| 20260902023424 | 73 | 73 | 0.0 | 0.0 | 0.00 | 0.06 | 0.06 | 92 | 1015.7 |
| 20260902022922 | 73 | 73 | 0.0 | 0.0 | 0.00 | 0.06 | 0.06 | 92 | 1015.6 |
| 20260902022438 | 73 | 25 | 0.0 | 0.0 | 0.00 | 0.06 | 0.06 | 92 | 1015.7 |
| 20260902021936 | 73 | 15 | 0.0 | 0.0 | 0.00 | 0.06 | 0.06 | 92 | 1015.6 |
| 20260902021430 | 73 | 15 | 0.0 | 3.0 | 0.00 | 0.06 | 0.06 | 92 | 1015.7 |
| 20260902020919 | 73 | 15 | 0.0 | 5.0 | 0.00 | 0.06 | 0.06 | 92 | 1015.7 |
| 20260902020406 | 73 | 16 | 2.0 | 5.0 | 0.00 | 0.06 | 0.06 | 92 | 1015.7 |
| 20260902015952 | 73 | 13 | 3.0 | 4.0 | 0.00 | 0.06 | 0.06 | 92 | 1015.6 |
| 20260902015457 | 73 | 40 | 2.0 | 5.0 | 0.00 | 0.06 | 0.06 | 92 | 1015.8 |
| 20260902014920 | 73 | 19 | 3.0 | 5.0 | 0.00 | 0.06 | 0.06 | 91 | 1015.8 |
| 20260902014429 | 73 | 15 | 4.0 | 5.0 | 0.00 | 0.06 | 0.06 | 91 | 1015.7 |
| 20260902013948 | 74 | 30 | 0.0 | 0.0 | 0.00 | 0.06 | 0.06 | 91 | 1015.6 |
| 20260902013434 | 74 | 24 | 0.0 | 0.0 | 0.00 | 0.06 | 0.06 | 91 | 1015.7 |
| 20260902012919 | 74 | 24 | 0.0 | 0.0 | 0.00 | 0.06 | 0.06 | 91 | 1015.6 |
| 20260902012432 | 74 | 25 | 0.0 | 4.0 | 0.00 | 0.06 | 0.06 | 91 | 1015.6 |
| 20260902011923 | 74 | 36 | 2.0 | 4.0 | 0.00 | 0.06 | 0.06 | 90 | 1015.5 |
| 20260902011410 | 74 | 17 | 1.0 | 4.0 | 0.00 | 0.06 | 0.06 | 90 | 1015.5 |
| 20260902010919 | 74 | 355 | 0.0 | 3.0 | 0.00 | 0.06 | 0.06 | 90 | 1015.5 |
| 20260902010432 | 74 | 351 | 0.0 | 2.0 | 0.00 | 0.06 | 0.06 | 90 | 1015.4 |
| 20260902005933 | 74 | 351 | 0.0 | 3.0 | 0.00 | 0.07 | 0.06 | 89 | 1015.3 |
| 20260902005417 | 75 | 351 | 0.0 | 2.0 | 0.00 | 0.07 | 0.06 | 89 | 1015.3 |
| 20260902004923 | 75 | 350 | 0.0 | 0.0 | 0.00 | 0.07 | 0.06 | 89 | 1015.1 |
| 20260902004413 | 75 | 348 | 0.0 | 0.0 | 0.00 | 0.07 | 0.06 | 88 | 1015.0 |
| 20260902003917 | 75 | 348 | 0.0 | 0.0 | 0.00 | 0.07 | 0.06 | 88 | 1015.0 |
| 20260902003441 | 75 | 348 | 0.0 | 0.0 | 0.00 | 0.07 | 0.06 | 88 | 1014.8 |
| 20260902002928 | 75 | 348 | 0.0 | 0.0 | 0.00 | 0.07 | 0.06 | 87 | 1014.7 |
| 20260902002432 | 75 | 348 | 0.0 | 0.0 | 0.00 | 0.07 | 0.06 | 87 | 1014.5 |
| 20260902001917 | 76 | 348 | 0.0 | 0.0 | 0.00 | 0.07 | 0.06 | 87 | 1014.4 |
| 20260902001409 | 76 | 348 | 0.0 | 0.0 | 0.00 | 0.07 | 0.06 | 86 | 1014.3 |
| 20260902000910 | 76 | 348 | 0.0 | 0.0 | 0.00 | 0.07 | 0.06 | 86 | 1014.2 |
| 20260902000421 | 76 | 348 | 0.0 | 0.0 | 0.00 | 0.07 | 0.06 | 86 | 1014.2 |
| 20260901235928 | 76 | 348 | 0.0 | 0.0 | 0.00 | 0.07 | 0.06 | 85 | 1014.2 |
| 20260901235417 | 76 | 348 | 0.0 | 0.0 | 0.00 | 0.07 | 0.06 | 85 | 1014.2 |
| 20260901234936 | 76 | 348 | 0.0 | 0.0 | 0.00 | 0.07 | 0.06 | 85 | 1014.3 |
| 20260901234434 | 77 | 348 | 0.0 | 0.0 | 0.00 | 0.07 | 0.06 | 84 | 1014.2 |
| 20260901233937 | 77 | 348 | 0.0 | 0.0 | 0.00 | 0.07 | 0.06 | 84 | 1014.3 |
| 20260901233424 | 77 | 348 | 0.0 | 0.0 | 0.00 | 0.07 | 0.06 | 84 | 1014.3 |
| 20260901232951 | 77 | 348 | 0.0 | 0.0 | 0.00 | 0.07 | 0.06 | 84 | 1014.4 |
| 20260901232411 | 77 | 348 | 0.0 | 0.0 | 0.00 | 0.07 | 0.06 | 84 | 1014.3 |
| 20260901231938 | 77 | 348 | 0.0 | 0.0 | 0.00 | 0.07 | 0.06 | 84 | 1014.3 |
| 20260901231419 | 78 | 348 | 0.0 | 0.0 | 0.00 | 0.07 | 0.06 | 84 | 1014.4 |
| 20260901230958 | 78 | 348 | 0.0 | 0.0 | 0.00 | 0.07 | 0.06 | 84 | 1014.5 |
| 20260901230410 | 78 | 348 | 0.0 | 0.0 | 0.00 | 0.07 | 0.06 | 84 | 1014.5 |
| 20260901225931 | 78 | 348 | 0.0 | 0.0 | 0.00 | 0.08 | 0.06 | 83 | 1014.6 |
| 20260901225428 | 78 | 348 | 0.0 | 3.0 | 0.00 | 0.08 | 0.06 | 83 | 1014.6 |
| 20260901224912 | 78 | 348 | 1.0 | 4.0 | 0.00 | 0.08 | 0.06 | 83 | 1014.5 |
| 20260901224411 | 78 | 348 | 1.0 | 5.0 | 0.00 | 0.08 | 0.06 | 84 | 1014.6 |
| 20260901223915 | 78 | 347 | 2.0 | 6.0 | 0.00 | 0.08 | 0.06 | 84 | 1014.5 |
| 20260901223434 | 79 | 28 | 3.0 | 6.0 | 0.00 | 0.08 | 0.06 | 84 | 1014.5 |
| 20260901222932 | 79 | 14 | 4.0 | 6.0 | 0.00 | 0.08 | 0.06 | 84 | 1014.5 |
| 20260901222442 | 79 | 333 | 4.0 | 5.0 | 0.00 | 0.08 | 0.06 | 84 | 1014.5 |
| 20260901221920 | 79 | 19 | 3.0 | 4.0 | 0.00 | 0.08 | 0.06 | 84 | 1014.3 |
| 20260901221418 | 79 | 355 | 1.0 | 5.0 | 0.00 | 0.08 | 0.06 | 84 | 1014.3 |
| 20260901220922 | 79 | 344 | 3.0 | 5.0 | 0.00 | 0.08 | 0.06 | 84 | 1014.3 |
| 20260901220435 | 79 | 342 | 2.0 | 6.0 | 0.00 | 0.08 | 0.06 | 84 | 1014.3 |
| 20260901215926 | 79 | 345 | 4.0 | 7.0 | 0.00 | 0.08 | 0.06 | 83 | 1014.3 |
| 20260901215428 | 79 | 39 | 4.0 | 6.0 | 0.00 | 0.08 | 0.06 | 83 | 1014.3 |
| 20260901214918 | 79 | 39 | 4.0 | 7.0 | 0.00 | 0.08 | 0.06 | 83 | 1014.3 |
| 20260901214423 | 79 | 27 | 4.0 | 7.0 | 0.00 | 0.08 | 0.06 | 83 | 1014.2 |
| 20260901213957 | 80 | 32 | 3.0 | 6.0 | 0.00 | 0.08 | 0.06 | 83 | 1014.2 |
| 20260901213418 | 80 | 5 | 3.0 | 6.0 | 0.00 | 0.08 | 0.06 | 83 | 1014.1 |
| 20260901212913 | 80 | 24 | 3.0 | 5.0 | 0.00 | 0.08 | 0.06 | 83 | 1014.1 |
| 20260901212441 | 80 | 23 | 3.0 | 5.0 | 0.00 | 0.08 | 0.06 | 83 | 1014.1 |
| 20260901211958 | 80 | 360 | 3.0 | 4.0 | 0.00 | 0.08 | 0.06 | 82 | 1014.1 |
| 20260901211409 | 80 | 355 | 1.0 | 6.0 | 0.00 | 0.08 | 0.06 | 82 | 1014.1 |
| 20260901210919 | 80 | 349 | 4.0 | 6.0 | 0.00 | 0.08 | 0.06 | 82 | 1014.1 |
| 20260901210458 | 80 | 275 | 1.0 | 5.0 | 0.00 | 0.08 | 0.06 | 82 | 1014.0 |
| 20260901205931 | 80 | 337 | 2.0 | 6.0 | 0.00 | 0.17 | 0.06 | 82 | 1014.0 |
| 20260901205423 | 80 | 21 | 3.0 | 6.0 | 0.00 | 0.17 | 0.06 | 82 | 1014.0 |
| 20260901204916 | 80 | 21 | 3.0 | 6.0 | 0.00 | 0.17 | 0.06 | 82 | 1014.1 |
| 20260901204418 | 80 | 355 | 2.0 | 5.0 | 0.00 | 0.17 | 0.06 | 82 | 1014.3 |
| 20260901203921 | 80 | 296 | 2.0 | 6.0 | 0.00 | 0.17 | 0.06 | 82 | 1014.3 |
| 20260901203412 | 80 | 340 | 3.0 | 7.0 | 0.00 | 0.17 | 0.06 | 82 | 1014.3 |
| 20260901202932 | 80 | 332 | 3.0 | 7.0 | 0.00 | 0.17 | 0.06 | 82 | 1014.3 |
| 20260901202419 | 80 | 350 | 4.0 | 7.0 | 0.00 | 0.17 | 0.06 | 82 | 1014.3 |
| 20260901201918 | 80 | 22 | 2.0 | 7.0 | 0.00 | 0.17 | 0.06 | 81 | 1014.2 |
| 20260901201448 | 80 | 334 | 3.0 | 7.0 | 0.00 | 0.17 | 0.06 | 82 | 1014.3 |
| 20260901200915 | 80 | 19 | 3.0 | 8.0 | 0.00 | 0.17 | 0.06 | 81 | 1014.3 |
| 20260901200428 | 80 | 5 | 4.0 | 8.0 | 0.00 | 0.17 | 0.06 | 81 | 1014.2 |
| 20260901195922 | 80 | 338 | 4.0 | 8.0 | 0.00 | 0.29 | 0.06 | 82 | 1014.2 |
| 20260901195422 | 80 | 344 | 2.0 | 8.0 | 0.00 | 0.29 | 0.06 | 81 | 1014.2 |
| 20260901194910 | 80 | 320 | 4.0 | 8.0 | 0.00 | 0.29 | 0.06 | 82 | 1014.2 |
| 20260901194419 | 80 | 332 | 3.0 | 7.0 | 0.00 | 0.29 | 0.06 | 81 | 1014.1 |
| 20260901193943 | 80 | 12 | 4.0 | 6.0 | 0.00 | 0.29 | 0.06 | 81 | 1014.1 |
| 20260901193414 | 80 | 293 | 3.0 | 6.0 | 0.00 | 0.29 | 0.06 | 82 | 1014.2 |
| 20260901192944 | 80 | 277 | 4.0 | 6.0 | 0.00 | 0.29 | 0.06 | 81 | 1014.1 |
| 20260901192416 | 80 | 317 | 4.0 | 6.0 | 0.00 | 0.29 | 0.06 | 81 | 1014.2 |
| 20260901191909 | 80 | 325 | 3.0 | 6.0 | 0.00 | 0.29 | 0.06 | 82 | 1014.1 |
| 20260901191412 | 80 | 298 | 1.0 | 5.0 | 0.00 | 0.29 | 0.06 | 82 | 1014.2 |
| 20260901190928 | 80 | 321 | 2.0 | 7.0 | 0.00 | 0.29 | 0.06 | 82 | 1014.2 |
| 20260901190427 | 80 | 330 | 3.0 | 9.0 | 0.00 | 0.29 | 0.06 | 82 | 1014.3 |
| 20260901185930 | 79 | 347 | 4.0 | 10.0 | 0.00 | 0.41 | 0.06 | 82 | 1014.3 |
| 20260901185420 | 79 | 327 | 5.0 | 10.0 | 0.00 | 0.41 | 0.06 | 82 | 1014.4 |
| 20260901184926 | 79 | 300 | 4.0 | 11.0 | 0.00 | 0.41 | 0.06 | 82 | 1014.3 |
| 20260901184415 | 79 | 282 | 5.0 | 11.0 | 0.00 | 0.41 | 0.06 | 81 | 1014.2 |
| 20260901183947 | 80 | 337 | 5.0 | 10.0 | 0.00 | 0.41 | 0.06 | 82 | 1014.2 |
| 20260901183443 | 80 | 14 | 5.0 | 9.0 | 0.00 | 0.41 | 0.06 | 82 | 1014.2 |
| 20260901182926 | 80 | 279 | 2.0 | 9.0 | 0.00 | 0.41 | 0.06 | 83 | 1014.1 |
| 20260901182433 | 80 | 313 | 5.0 | 10.0 | 0.00 | 0.41 | 0.06 | 84 | 1014.1 |
| 20260901181911 | 80 | 15 | 6.0 | 12.0 | 0.00 | 0.41 | 0.06 | 83 | 1014.0 |
| 20260901181439 | 80 | 355 | 7.0 | 12.0 | 0.00 | 0.41 | 0.06 | 83 | 1014.0 |
| 20260901180906 | 80 | 348 | 6.0 | 10.0 | 0.00 | 0.41 | 0.06 | 83 | 1014.0 |
| 20260901180437 | 80 | 338 | 7.0 | 10.0 | 0.00 | 0.41 | 0.06 | 82 | 1014.0 |
| 20260901175940 | 80 | 317 | 4.0 | 11.0 | 0.00 | 0.44 | 0.06 | 83 | 1014.0 |
| 20260901175413 | 80 | 349 | 7.0 | 11.0 | 0.00 | 0.44 | 0.06 | 83 | 1014.0 |
| 20260901174913 | 80 | 339 | 4.0 | 8.0 | 0.00 | 0.44 | 0.06 | 84 | 1013.9 |
| 20260901174419 | 80 | 329 | 4.0 | 9.0 | 0.00 | 0.44 | 0.06 | 84 | 1013.8 |
| 20260901173938 | 80 | 338 | 5.0 | 9.0 | 0.00 | 0.44 | 0.06 | 84 | 1013.7 |
| 20260901173421 | 80 | 329 | 3.0 | 8.0 | 0.00 | 0.44 | 0.06 | 83 | 1013.6 |
| 20260901172926 | 80 | 335 | 3.0 | 9.0 | 0.00 | 0.44 | 0.06 | 83 | 1013.5 |
| 20260901172418 | 81 | 345 | 6.0 | 9.0 | 0.00 | 0.44 | 0.06 | 82 | 1013.5 |
| 20260901171912 | 81 | 304 | 1.0 | 4.0 | 0.00 | 0.44 | 0.06 | 81 | 1013.4 |
| 20260901171412 | 81 | 340 | 1.0 | 4.0 | 0.00 | 0.44 | 0.06 | 81 | 1013.4 |
| 20260901170915 | 81 | 300 | 0.0 | 3.0 | 0.00 | 0.44 | 0.06 | 82 | 1013.3 |
| 20260901170415 | 81 | 277 | 1.0 | 3.0 | 0.00 | 0.44 | 0.06 | 82 | 1013.3 |
| 20260901165958 | 81 | 278 | 0.0 | 3.0 | 0.00 | 0.45 | 0.06 | 81 | 1013.4 |
| 20260901165434 | 81 | 278 | 0.0 | 5.0 | 0.00 | 0.45 | 0.06 | 81 | 1013.4 |
| 20260901164915 | 81 | 273 | 1.0 | 5.0 | 0.00 | 0.45 | 0.06 | 81 | 1013.5 |
| 20260901164443 | 81 | 288 | 2.0 | 5.0 | 0.00 | 0.45 | 0.06 | 81 | 1013.5 |
| 20260901163923 | 81 | 294 | 1.0 | 4.0 | 0.00 | 0.45 | 0.06 | 81 | 1013.4 |
| 20260901163413 | 81 | 276 | 1.0 | 3.0 | 0.00 | 0.45 | 0.06 | 81 | 1013.4 |
| 20260901162920 | 81 | 276 | 0.0 | 6.0 | 0.00 | 0.45 | 0.06 | 81 | 1013.4 |
| 20260901162424 | 81 | 273 | 2.0 | 4.0 | 0.00 | 0.45 | 0.06 | 82 | 1013.3 |
| 20260901161940 | 80 | 277 | 0.0 | 5.0 | 0.00 | 0.45 | 0.06 | 82 | 1013.3 |
| 20260901161416 | 80 | 296 | 1.0 | 5.0 | 0.00 | 0.45 | 0.06 | 83 | 1013.3 |
| 20260901160923 | 80 | 285 | 1.0 | 5.0 | 0.00 | 0.45 | 0.06 | 83 | 1013.3 |
| 20260901160427 | 80 | 269 | 1.0 | 4.0 | 0.00 | 0.45 | 0.06 | 84 | 1013.2 |
| 20260901155924 | 80 | 269 | 1.0 | 4.0 | 0.00 | 0.50 | 0.06 | 85 | 1013.2 |
| 20260901155434 | 79 | 273 | 1.0 | 6.0 | 0.00 | 0.50 | 0.06 | 86 | 1013.2 |
| 20260901154942 | 79 | 272 | 2.0 | 6.0 | 0.00 | 0.50 | 0.06 | 85 | 1013.2 |
| 20260901154437 | 79 | 271 | 1.0 | 4.0 | 0.00 | 0.50 | 0.06 | 86 | 1013.2 |
| 20260901153922 | 79 | 269 | 0.0 | 0.0 | 0.00 | 0.50 | 0.06 | 87 | 1013.2 |
| 20260901153432 | 79 | 273 | 0.0 | 4.0 | 0.00 | 0.50 | 0.06 | 89 | 1013.1 |
| 20260901152934 | 78 | 272 | 0.0 | 5.0 | 0.00 | 0.50 | 0.06 | 89 | 1013.2 |
| 20260901152411 | 78 | 269 | 0.0 | 5.0 | 0.00 | 0.50 | 0.06 | 92 | 1013.3 |
| 20260901151913 | 77 | 275 | 0.0 | 4.0 | 0.00 | 0.50 | 0.06 | 93 | 1013.3 |
| 20260901151414 | 77 | 275 | 1.0 | 4.0 | 0.00 | 0.50 | 0.06 | 94 | 1013.4 |
| 20260901150918 | 77 | 286 | 0.0 | 6.0 | 0.00 | 0.50 | 0.06 | 95 | 1013.4 |
| 20260901150417 | 76 | 259 | 0.0 | 2.0 | 0.00 | 0.50 | 0.06 | 96 | 1013.4 |
| 20260901145945 | 76 | 257 | 0.0 | 0.0 | 0.00 | 0.65 | 0.06 | 97 | 1013.4 |
| 20260901145411 | 75 | 257 | 0.0 | 0.0 | 0.00 | 0.65 | 0.06 | 97 | 1013.3 |
| 20260901144936 | 75 | 212 | 0.0 | 0.0 | 0.00 | 0.65 | 0.06 | 98 | 1013.3 |
| 20260901144418 | 74 | 212 | 0.0 | 0.0 | 0.00 | 0.65 | 0.06 | 97 | 1013.4 |
| 20260901143935 | 74 | 212 | 0.0 | 0.0 | 0.00 | 0.65 | 0.06 | 98 | 1013.4 |
| 20260901143411 | 74 | 212 | 0.0 | 0.0 | 0.00 | 0.65 | 0.06 | 98 | 1013.3 |
| 20260901142915 | 74 | 211 | 0.0 | 0.0 | 0.00 | 0.65 | 0.06 | 97 | 1013.4 |
| 20260901142435 | 74 | 212 | 0.0 | 0.0 | 0.00 | 0.65 | 0.06 | 98 | 1013.4 |
| 20260901141932 | 74 | 126 | 0.0 | 0.0 | 0.00 | 0.65 | 0.06 | 98 | 1013.4 |
| 20260901141425 | 74 | 126 | 0.0 | 0.0 | 0.00 | 0.65 | 0.06 | 98 | 1013.3 |
| 20260901140933 | 73 | 126 | 0.0 | 0.0 | 0.00 | 0.65 | 0.06 | 98 | 1013.3 |
| 20260901140419 | 73 | 126 | 0.0 | 0.0 | 0.00 | 0.65 | 0.06 | 97 | 1013.3 |
| 20260901135910 | 73 | 126 | 0.0 | 0.0 | 0.00 | 0.74 | 0.06 | 97 | 1013.3 |
| 20260901135420 | 73 | 126 | 0.0 | 0.0 | 0.00 | 0.74 | 0.06 | 97 | 1013.4 |
| 20260901134927 | 73 | 126 | 0.0 | 0.0 | 0.00 | 0.74 | 0.06 | 98 | 1013.4 |
| 20260901134433 | 72 | 126 | 0.0 | 0.0 | 0.00 | 0.74 | 0.06 | 98 | 1013.4 |
| 20260901133933 | 72 | 126 | 0.0 | 0.0 | 0.00 | 0.74 | 0.06 | 97 | 1013.4 |
| 20260901133410 | 72 | 126 | 0.0 | 0.0 | 0.00 | 0.74 | 0.06 | 97 | 1013.3 |
| 20260901132943 | 72 | 126 | 0.0 | 0.0 | 0.00 | 0.74 | 0.06 | 97 | 1013.2 |
| 20260901132422 | 72 | 126 | 0.0 | 0.0 | 0.00 | 0.74 | 0.06 | 97 | 1013.2 |
| 20260901131906 | 71 | 126 | 0.0 | 0.0 | 0.00 | 0.74 | 0.06 | 97 | 1013.4 |
| 20260901131422 | 71 | 126 | 0.0 | 0.0 | 0.00 | 0.74 | 0.06 | 97 | 1013.3 |
| 20260901130921 | 71 | 126 | 0.0 | 0.0 | 0.00 | 0.74 | 0.06 | 97 | 1013.5 |
| 20260901130444 | 71 | 126 | 0.0 | 0.0 | 0.00 | 0.74 | 0.06 | 97 | 1013.5 |
| 20260901125927 | 71 | 126 | 0.0 | 0.0 | 0.00 | 0.74 | 0.06 | 97 | 1013.5 |
| 20260901125418 | 71 | 126 | 0.0 | 0.0 | 0.00 | 0.74 | 0.06 | 97 | 1013.6 |
| 20260901124931 | 71 | 126 | 0.0 | 0.0 | 0.00 | 0.74 | 0.06 | 97 | 1013.7 |
| 20260901124409 | 71 | 126 | 0.0 | 0.0 | 0.00 | 0.74 | 0.06 | 97 | 1013.6 |
| 20260901123932 | 71 | 126 | 0.0 | 0.0 | 0.00 | 0.74 | 0.06 | 97 | 1013.6 |
| 20260901123420 | 71 | 126 | 0.0 | 0.0 | 0.00 | 0.74 | 0.06 | 97 | 1013.5 |
| 20260901122936 | 70 | 126 | 0.0 | 0.0 | 0.00 | 0.74 | 0.06 | 97 | 1013.5 |
| 20260901122421 | 70 | 126 | 0.0 | 0.0 | 0.00 | 0.74 | 0.06 | 97 | 1013.5 |
| 20260901121942 | 70 | 126 | 0.0 | 0.0 | 0.00 | 0.74 | 0.06 | 97 | 1013.5 |
| 20260901121414 | 70 | 126 | 0.0 | 0.0 | 0.00 | 0.74 | 0.06 | 97 | 1013.4 |
| 20260901120926 | 70 | 130 | 0.0 | 0.0 | 0.00 | 0.74 | 0.06 | 97 | 1013.5 |
| 20260901120420 | 70 | 130 | 0.0 | 0.0 | 0.00 | 0.74 | 0.06 | 97 | 1013.5 |
| 20260901115927 | 70 | 130 | 0.0 | 0.0 | 0.00 | 0.74 | 0.06 | 97 | 1013.5 |
| 20260901115412 | 70 | 130 | 0.0 | 0.0 | 0.00 | 0.74 | 0.06 | 97 | 1013.4 |
| 20260901114916 | 70 | 130 | 0.0 | 0.0 | 0.00 | 0.74 | 0.06 | 97 | 1013.4 |
| 20260901114441 | 69 | 130 | 0.0 | 0.0 | 0.00 | 0.74 | 0.06 | 97 | 1013.4 |
| 20260901113931 | 69 | 130 | 0.0 | 0.0 | 0.00 | 0.74 | 0.06 | 97 | 1013.5 |
| 20260901113417 | 69 | 130 | 0.0 | 0.0 | 0.00 | 0.74 | 0.06 | 97 | 1013.5 |
| 20260901112959 | 69 | 130 | 0.0 | 0.0 | 0.00 | 0.74 | 0.06 | 97 | 1013.3 |
| 20260901112458 | 69 | 130 | 0.0 | 0.0 | 0.00 | 0.74 | 0.06 | 97 | 1013.2 |
| 20260901111910 | 69 | 130 | 0.0 | 0.0 | 0.00 | 0.74 | 0.06 | 97 | 1013.3 |
| 20260901111439 | 69 | 130 | 0.0 | 0.0 | 0.00 | 0.74 | 0.06 | 97 | 1013.3 |
| 20260901110934 | 69 | 130 | 0.0 | 0.0 | 0.00 | 0.74 | 0.06 | 97 | 1013.3 |
| 20260901110422 | 69 | 130 | 0.0 | 0.0 | 0.00 | 0.74 | 0.06 | 97 | 1013.3 |
| 20260901105917 | 69 | 130 | 0.0 | 0.0 | 0.00 | 0.74 | 0.06 | 97 | 1013.2 |
| 20260901105420 | 69 | 130 | 0.0 | 0.0 | 0.00 | 0.74 | 0.06 | 97 | 1013.2 |
| 20260901104427 | 69 | 130 | 0.0 | 0.0 | 0.00 | 0.74 | 0.06 | 97 | 1013.0 |
| 20260901103927 | 69 | 125 | 0.0 | 0.0 | 0.00 | 0.74 | 0.06 | 97 | 1012.9 |
| 20260901103415 | 69 | 125 | 0.0 | 0.0 | 0.00 | 0.74 | 0.06 | 97 | 1013.0 |
| 20260901102932 | 69 | 135 | 0.0 | 0.0 | 0.00 | 0.74 | 0.06 | 97 | 1013.1 |
| 20260901102412 | 69 | 137 | 0.0 | 0.0 | 0.00 | 0.74 | 0.06 | 97 | 1013.2 |
| 20260901101916 | 69 | 137 | 0.0 | 0.0 | 0.00 | 0.74 | 0.06 | 97 | 1013.2 |
| 20260901101431 | 69 | 137 | 0.0 | 0.0 | 0.00 | 0.74 | 0.06 | 97 | 1013.2 |
| 20260901100934 | 69 | 137 | 0.0 | 0.0 | 0.00 | 0.74 | 0.06 | 97 | 1013.2 |
| 20260901100420 | 69 | 138 | 0.0 | 0.0 | 0.00 | 0.74 | 0.06 | 97 | 1013.2 |
| 20260901095923 | 69 | 138 | 0.0 | 0.0 | 0.00 | 0.74 | 0.06 | 97 | 1013.2 |